www.pogodaiklimat.ru

Погода и климат >> Архив погоды >> Россия >> Приморский край >> Терней


ПОГОДА в Тернее

  • Прогноз погоды в Тернее
  • Монитор погоды в Тернее
  • Климат города

АРХИВ ПОГОДЫ в Тернее

Время (UTC), дата Ветер
(напр.,м/с)
 
Видим.   Явления Облачность Т
(С)
Тd
(С)
f
(%)
Тe
(С)
Тes
(С)
Комфортность P
(гПа)
Po
(гПа)
Тmin
(С)
Tmax
(С)
R
(мм)
S
(см)
12 13.02 З 6
{10}
20 км 3/0
[Ac trans]
-2.7 -10.1 57 -9 -9 1024.4 1016.5
15 13.02 З 5
{11}
20 км 6/0
[Cs]
-3.5 -10.5 58 -10 -10 1024.8 1016.8
18 13.02 З 3
{10}
20 км 10/0
[Ac trans Cs]
-3.4 -10.9 56 -8 -8 1025.0 1017.0
21 13.02 СЗ 5
{10}
20 км 9/0
[Ac As]
-4.1 -11.6 56 -11 -11 1025.0 1017.0 -4.1 1
00 14.02 СЗ 4
{10}
50 км 9/3 600 м
[Sc Ac trans]
-2.8 -11.5 51 -8 -8 1025.1 1017.1 -4.3
03 14.02 СЗ 4 50 км 8/3 600 м
[Sc Ac trans]
+1.4 -11.8 37 -3 -1 1023.3 1015.5
06 14.02 СЗ 6-13
{13}
50 км 1/0
[Ac lent]
+2.6 -13.7 29 -2 -1 1021.5 1013.7
09 14.02 З 6-10
{14}
20 км ясно -1.5 -13.6 39 -8 -8 1022.0 1014.1 +3.5
12 14.02 З 8-14
{15}
20 км ясно -3.2 -16.0 36 -11 -11 1022.1 1014.1
15 14.02 З 7-12
{18}
20 км ясно -4.6 -15.6 42 -12 -12 1021.9 1013.9
18 14.02 СЗ 4
{15}
20 км ясно -5.9 -14.9 49 -12 -12 1021.5 1013.5
21 14.02 З 3
{10}
20 км ясно -6.1 -14.9 50 -11 -11 1021.4 1013.4 -6.5 1
00 15.02 СЗ 4 50 км 8/0
[Ci]
-2.5 -14.0 41 -8 -6 1021.9 1014.0 -6.7
03 15.02 СЗ 3 50 км 10/0
[As trans]
+0.5 -14.0 33 -3 -1 1020.0 1012.2
06 15.02 В 1 50 км 9/0
[As trans]
+1.5 -12.0 36 +1 +2 1018.2 1010.4
09 15.02 Ю 1 20 км 10/0
[Ac und]
-0.7 -11.2 45 -2 -2 1017.8 1010.0 +2.2
12 15.02 ЮЗ 1 20 км 3/0
[Ac trans]
-1.5 -11.8 45 -3 -3 1018.2 1010.3
15 15.02 СЗ 1 20 км ясно -4.3 -13.5 49 -6 -6 1016.9 1008.9
18 15.02 ЮЗ 1 20 км ясно -6.3 -14.0 54 -8 -8 1014.7 1006.7
21 15.02 СЗ 3 20 км 10/0
[Cs]
-6.8 -14.0 56 -12 -12 1013.7 1005.8 -7.1 0
00 16.02 СЗ 3 50 км 10/0
[As trans]
-5.9 -13.0 57 -11 -10 1012.5 1004.5 -7.4
03 16.02 СЗ 1 50 км 10/6 600 м
[Sc As trans]
-1.8 -12.3 45 -3 -2 1008.9 1001.1
06 16.02 В 2 50 км 10/0
[Cs]
-0.1 -7.6 57 -3 -1 1005.7 998.0
09 16.02 СЗ 1 20 км 10/0
[Cs]
-3.2 -5.6 83 -5 -5 1005.0 997.2 +0.2
12 16.02 Ю 1 20 км 6/0
[Cs]
-3.5 -7.4 74 -6 -6 1004.8 997.0
15 16.02 СЗ 6-13
{16}
20 км 3/0
[Cs]
0.0 -9.7 48 -6 -6 1005.7 998.0
18 16.02 СЗ 5-10
{16}
20 км 4/3 600 м
[Sc Ac As]
-4.6 -14.2 47 -11 -11 1007.4 999.5
21 16.02 СЗ 6-13
{14}
20 км 1/0
[Ac As]
-6.3 -15.1 50 -14 -14 1006.9 999.0 -6.3 0
00 17.02 З 7-13
{14}
50 км ясно -4.7 -16.1 40 -12 -11 1007.0 999.2 -6.7
03 17.02 СЗ 8-18
{18}
50 км 3/3 600 м
[Sc]
-3.2 -17.6 32 -11 -10 1005.1 997.3
06 17.02 СЗ 8-17
{21}
50 км 8/8 600 м
[Sc]
-5.3 -19.3 32 -13 -13 1004.9 997.1
09 17.02 З 6
{17}
4000 м слабый ливневой снег 10/10 300 м
[Cb cap]
-7.5 -14.0 60 -15 -15 1007.3 999.3 -3.1 0.0
12 17.02 СЗ 7-13
{21}
20 км позёмок {ливн. осадки, метель} ясно -11.3 -22.1 40 -21 -21 1011.1 1003.0
15 17.02 СЗ 11-22
{25}
20 км позёмок {метель} ясно -13.0 -23.2 42 -25 -25 1010.1 1001.9
18 17.02 СЗ 13-22
{26}
20 км позёмок {метель} ясно -13.3 -24.3 39 -26 -26 1010.6 1002.5
21 17.02 З 6-13
{26}
20 км позёмок {метель} ясно -14.2 -24.4 42 -24 -24 1012.0 1003.8 -14.2 0.3 1
00 18.02 З 12-20
{22}
50 км {метель} 4/0
[Cs]
-13.3 -24.0 40 -26 -26 1012.5 1004.3 -14.4
03 18.02 З 9-17
{23}
50 км 8/0
[Ac trans Ci]
-9.7 -22.3 35 -20 -19 1010.6 1002.5
06 18.02 СЗ 12-22
{22}
50 км 1/0
[Ci fib]
-9.2 -22.9 32 -20 -20 1009.4 1001.4
09 18.02 СЗ 9-16
{23}
20 км ясно -11.8 -23.3 38 -22 -22 1011.1 1003.0 -8.9
12 18.02 СЗ 10-16
{24}
20 км ясно -13.0 -23.5 41 -24 -24 1012.9 1004.7
15 18.02 З 8-15
{20}
20 км ясно -13.2 -23.2 43 -24 -24 1013.2 1005.0
18 18.02 З 9-15
{18}
20 км ясно -14.1 -23.2 46 -25 -25 1014.2 1006.0
21 18.02 З 7-13
{17}
20 км 3/0
[Ac trans]
-14.6 -23.1 48 -25 -25 1014.9 1006.7 -14.6 0
00 19.02 СЗ 7-13
{15}
50 км ясно -12.2 -23.8 37 -22 -21 1015.9 1007.7 -14.7
03 19.02 З 6-11
{13}
50 км ясно -6.2 -22.5 26 -13 -11 1013.5 1005.6
06 19.02 З 5
{11}
50 км 6/0
[Ci fib]
-4.4 -22.1 24 -10 -9 1011.5 1003.6
09 19.02 З 6
{10}
20 км 1/0
[Ci fib]
-7.8 -23.6 27 -15 -15 1012.0 1004.0 -4.1
12 19.02 З 4
{10}
20 км ясно -10.8 -23.3 35 -18 -18 1012.3 1004.2
15 19.02 З 6 20 км ясно -11.8 -23.9 36 -21 -21 1012.0 1003.8
18 19.02 З 2 20 км ясно -12.2 -24.5 35 -17 -17 1010.2 1002.1
21 19.02 СЗ 1 20 км 3/0
[Cs]
-13.4 -23.9 41 -16 -16 1010.1 1001.9 -13.7 0
00 20.02 СЗ 4 50 км 3/0
[Cs]
-10.3 -23.0 34 -17 -15 1010.8 1002.7 -14.9
03 20.02 СВ 1 50 км ясно -4.7 -19.5 30 -6 +2 1008.2 1000.3
06 20.02 ЮВ 3 50 км 9/0
[Cs]
-5.3 -14.1 50 -10 -8 1006.9 999.0

 

Местоположение метеостанции Терней (Приморский край, Россия): широта 45.00 долгота 136.60 высота над уровнем моря 62 м.

В архиве по умолчанию представлена погода в Тернее за последнюю неделю. Архивные данные за месяц целиком и за предыдущие месяцы, начиная с января 2011 года, Вы можете получить, выбрав интересующий диапазон дат из раскрывающегося списка и нажав кнопку "Ввод!".

Внимание! Время в таблицах - всемирное. Для получения местного времени необходимо прибавить поправку, которая в Тернее равна 10 ч.

Смотрите также архив погоды в соседних городах и на ближайших метеорологических станциях:

Погода в Малой Кеме (Приморский край, Россия) (59 км)
Погода в Рудной Пристани (Приморский край, Россия) (94 км)
Погода в Мельничном (Приморский край, Россия) (100 км)
Погода в Богополе (Приморский край, Россия) (126 км)
Погода в Кавалерово (Приморский край, Россия) (152 км)
Погода в Глубинном (Приморский край, Россия) (156 км)
Погода в Охотничем (Приморский край, Россия) (171 км)
Погода в Ольге (Приморский край, Россия) (173 км)
Погода в Малиново (Приморский край, Россия) (194 км)
Погода в Красном Яре (Приморский край, Россия) (198 км)

Пояснения к столбцам:

Ветер - указаны скорость ветра в м/с - средняя за 10 мин, порывы в срок и между сроками (в фигурных скобках) и направление, откуда дует ветер: С - северный, СВ - северо-восточный, В - восточный, ЮВ - юго-восточный, Ю - южный, ЮЗ - юго-западный, З - западный, СЗ - северо-западный.
Видимость - горизонтальная дальность видимости в метрах или километрах. При видимости от 1 до 10 км при отсутствии осадков обычно наблюдается дымка, при ухудшении видимости до 1 км и менее - туман. В сухую погоду видимость может ухудшаться дымом, пылью или мглою.
Явления - указаны атмосферные явления, наблюдавшиеся в срок или в последний час перед сроком; фигурными скобками обозначены явления, наблюдавшиеся между сроками (за 1-3 часа до срока); квадратными скобками обозначены град или гололедные отложения с указанием их диаметра в мм.
Облачность - указаны через наклонную черту общая и нижняя облачность в баллах и высота нижней границы облаков в метрах; квадратными скобками обозначены формы облаков: Ci - перистые, Cs - перисто-слоистые, Cc - перисто-кучевые, Ac - высококучевые, As - высокослоистые, Sc - слоисто-кучевые, Ns - слоисто-дождевые, Cu - кучевые, Cb - кучево-дождевые. Подробнее классификацию облаков см. в Атласе облаков (PDF).
T - Температура воздуха - температура, измеренная на высоте 2 м над землей.
Td - Температура точки росы - температура, при понижении до которой содержащийся в воздухе водяной пар достигнет насыщения.
f - Относительная влажность воздуха - влажноcть воздуха, измеренная на высоте 2 м над землей.
Te - Эффективная температура - температура, которую ощущает одетый по сезону человек в тени. Характеристика душности погоды. При расчете учитывается влияние влажности воздуха и скорости ветра на теплоощущения человека.
Tes - Эффективная температура на солнце - температура, которую ощущает человек, с поправкой на солнечный нагрев. Характеристика знойности погоды. Зависит от высоты солнца над горизонтом, облачности и скорости ветра. Ночью, в пасмурную погоду, а также при ветре 12 м/с и более поправка равна нулю.
P - Атмосферное давление - приведенное к уровню моря атмосферное давление.
Po - Атмосферное давление - измеренное на уровне метеостанции атмосферное давление.
Tmin - Минимальная температура - минимум температуры воздуха на высоте 2 м над землей.
Tmax - Максимальная температура - максимум температуры воздуха на высоте 2 м над землей.
R - Количество осадков - Количество выпавших осадков, мм. При наведении курсора мыши на число - период времени, за который выпало указанное количество осадков.
S - Снежный покров - Высота снежного покрова, см. При наведении курсора мыши на число - состояние снежного покрова и степень покрытия местности в баллах.